Phuket, Thailand

12:18 PM +07 on November 18, 2017 (GMT +0700)
Phuket International

Weather History for VTSP - February, 2013

Change the Weather History Date:

Monday, February 11, 2013

  Actual Average Record
Temperature  
Mean Temperature 85 °F -  
Max Temperature 93 °F 91 °F 100 °F (1998)
Min Temperature 77 °F 75 °F 69 °F (2014)
Cooling Degree Days 20    
Growing Degree Days 35 (Base 50)    
Moisture  
Dew Point 69 °F    
Average Humidity 61    
Maximum Humidity 83    
Minimum Humidity 38    
Precipitation  
Precipitation 0.00 in 0.05 in - ()
Sea Level Pressure  
Sea Level Pressure 29.82 in    
Wind  
Wind Speed 10 mph ()    
Max Wind Speed 17 mph    
Max Gust Speed -    
Visibility 5.6 miles    
Events      
Averages and records for this station are not official NWS values.
T = Trace of Precipitation, MM = Missing Value Source: Averaged Metar Reports

Daily Weather History Graph

Daily Weather History Graph

Search for Another Location

Airport or City:

Trip Planner

Search our weather history database for the weather conditions in past years. The results will help you decide how hot, cold, wet, or windy it might be!

Date:

Astronomy

Feb. 11, 2013 Rise Set
Actual Time 6:45 AM +07 6:36 PM +07
Civil Twilight 6:24 AM +07 6:57 PM +07
Nautical Twilight 5:59 AM +07 7:22 PM +07
Astronomical Twilight 5:34 AM +07 7:47 PM +07
Moon 7:13 AM +07 (2/11) 7:31 PM +07 (2/11)
Length of Visible Light 12h 33m
Length of Day
11h 50m
New Moon, 1% of the Moon is Illuminated
Feb 11
New Moon
Feb 18
First Quarter
Feb 26
Full
Mar 5
Last Quarter
Mar 12
New

Hourly Weather History & Observations

Time (+07) Temp. Heat Index Dew Point Humidity Pressure Visibility Wind Dir Wind Speed Gust Speed Precip Events Conditions
12:00 AM 82.4 °F 85.4 °F 68.0 °F 62% 29.86 in 6.2 mi East 16.1 mph - N/A   Mostly Cloudy
1:00 AM 81 °F - 72 °F 69% 29.81 in 6 mi East 5.8 mph - -   Scattered Clouds
1:30 AM 82.4 °F 85.4 °F 68.0 °F 62% 29.83 in 5.6 mi East 17.3 mph - N/A   Mostly Cloudy
2:00 AM 80.6 °F 83.2 °F 68.0 °F 65% 29.83 in 5.6 mi East 15.0 mph - N/A   Mostly Cloudy
2:30 AM 80.6 °F 83.9 °F 69.8 °F 70% 29.83 in 5.6 mi East 11.5 mph - N/A   Mostly Cloudy
3:00 AM 80.6 °F 83.9 °F 69.8 °F 70% 29.83 in 5.6 mi East 11.5 mph - N/A   Scattered Clouds
3:30 AM 80.6 °F 83.9 °F 69.8 °F 70% 29.80 in 5.6 mi East 11.5 mph - N/A   Mostly Cloudy
4:00 AM 80.6 °F 83.9 °F 69.8 °F 70% 29.80 in 5.6 mi East 11.5 mph - N/A   Mostly Cloudy
4:30 AM 80.6 °F 83.2 °F 68.0 °F 65% 29.80 in 5.6 mi East 13.8 mph - N/A   Mostly Cloudy
5:00 AM 80.6 °F 83.2 °F 68.0 °F 65% 29.83 in 5.6 mi East 17.3 mph - N/A   Mostly Cloudy
5:30 AM 80.6 °F 83.2 °F 68.0 °F 65% 29.80 in 5.6 mi East 11.5 mph - N/A   Mostly Cloudy
6:00 AM 80.6 °F 83.2 °F 68.0 °F 65% 29.80 in 5.6 mi East 12.7 mph - N/A   Mostly Cloudy
6:30 AM 80.6 °F 83.2 °F 68.0 °F 65% 29.83 in 5.6 mi ESE 11.5 mph - N/A   Mostly Cloudy
7:00 AM 79 °F - 71 °F 71% 29.80 in 6 mi Calm Calm - -   Mist
7:00 AM 78.8 °F - 68.0 °F 69% 29.83 in 5.6 mi ESE 11.5 mph - N/A   Mostly Cloudy
7:30 AM 80.6 °F 83.9 °F 69.8 °F 70% 29.83 in 5.6 mi ESE 12.7 mph - N/A   Mostly Cloudy
8:00 AM 80.6 °F 83.9 °F 69.8 °F 70% 29.83 in 5.6 mi East 12.7 mph - N/A   Mostly Cloudy
8:30 AM 82.4 °F 87.2 °F 71.6 °F 70% 29.83 in 5.6 mi East 8.1 mph - N/A   Mostly Cloudy
9:00 AM 84.2 °F 88.4 °F 69.8 °F 62% 29.86 in 5.6 mi East 9.2 mph - N/A   Mostly Cloudy
9:30 AM 86.0 °F 90.4 °F 69.8 °F 58% 29.86 in 5.6 mi East 12.7 mph - N/A   Mostly Cloudy
10:00 AM 87.8 °F 90.4 °F 66.2 °F 49% 29.86 in 5.6 mi East 11.5 mph - N/A   Mostly Cloudy
10:30 AM 87.8 °F 90.4 °F 66.2 °F 49% 29.86 in 5.6 mi East 15.0 mph - N/A   Mostly Cloudy
11:00 AM 87.8 °F 90.4 °F 66.2 °F 49% 29.86 in 5.6 mi East 13.8 mph - N/A   Mostly Cloudy
11:30 AM 87.8 °F 89.4 °F 64.4 °F 46% 29.86 in 5.6 mi East 13.8 mph - N/A   Scattered Clouds
12:00 PM 89.6 °F 92.2 °F 66.2 °F 46% 29.86 in 5.6 mi East 15.0 mph - N/A   Scattered Clouds
12:30 PM 89.6 °F 92.2 °F 66.2 °F 46% 29.83 in 5.6 mi East 11.5 mph - N/A   Scattered Clouds
1:00 PM 90 °F - 68 °F 39% 29.82 in 6 mi East 13.8 mph - -   Scattered Clouds
1:00 PM 91.4 °F 94.0 °F 66.2 °F 43% 29.83 in 5.6 mi East 11.5 mph - N/A   Scattered Clouds
1:30 PM 89.6 °F 92.2 °F 66.2 °F 46% 29.80 in 6.2 mi East 15.0 mph - N/A   Scattered Clouds
2:00 PM 91.4 °F 94.0 °F 66.2 °F 43% 29.77 in 6.2 mi East 6.9 mph - N/A   Scattered Clouds
2:30 PM 93.2 °F 94.9 °F 64.4 °F 38% 29.77 in 6.2 mi East 15.0 mph - N/A   Scattered Clouds
3:00 PM 91.4 °F 93.2 °F 64.4 °F 41% 29.77 in 6.2 mi East 13.8 mph - N/A   Scattered Clouds
3:30 PM 93.2 °F 94.9 °F 64.4 °F 38% 29.74 in 6.2 mi East 10.4 mph - N/A   Scattered Clouds
4:00 PM 93.2 °F 94.9 °F 64.4 °F 38% 29.74 in 5.6 mi East 9.2 mph - N/A   Scattered Clouds
4:30 PM 87.8 °F 93.8 °F 71.6 °F 58% 29.74 in 5.6 mi Variable 8.1 mph - N/A   Scattered Clouds
5:00 PM 87.8 °F 93.8 °F 71.6 °F 58% 29.77 in 5.6 mi NW 13.8 mph - N/A   Scattered Clouds
5:30 PM 86.0 °F 91.8 °F 71.6 °F 62% 29.77 in 5.6 mi WNW 12.7 mph - N/A   Mostly Cloudy
6:00 PM 84.2 °F 89.6 °F 71.6 °F 66% 29.77 in 5.6 mi NW 10.4 mph - N/A   Scattered Clouds
6:30 PM 84.2 °F 89.6 °F 71.6 °F 66% 29.77 in 5.6 mi WNW 8.1 mph - N/A   Scattered Clouds
7:00 PM 85 °F - 74 °F 62% 29.76 in 6 mi WNW 5.8 mph - -   Scattered Clouds
7:00 PM 82.4 °F 87.2 °F 71.6 °F 70% 29.80 in 5.0 mi NW 6.9 mph - N/A   Scattered Clouds
7:30 PM 80.6 °F 84.6 °F 71.6 °F 74% 29.80 in 5.0 mi Variable 2.3 mph - N/A   Scattered Clouds
8:00 PM 80.6 °F 84.6 °F 71.6 °F 74% 29.83 in 5.0 mi Calm Calm - N/A   Scattered Clouds
8:30 PM 82.4 °F 88.2 °F 73.4 °F 74% 29.83 in 5.0 mi WSW 3.5 mph - N/A   Scattered Clouds
9:00 PM 80.6 °F 85.4 °F 73.4 °F 79% 29.86 in 5.0 mi Calm Calm - N/A   Scattered Clouds
9:30 PM 80.6 °F 85.4 °F 73.4 °F 79% 29.89 in 5.0 mi Calm Calm - N/A   Scattered Clouds
10:00 PM 78.8 °F - 73.4 °F 83% 29.89 in 5.0 mi Calm Calm - N/A   Scattered Clouds
10:30 PM 78.8 °F - 73.4 °F 83% 29.89 in 5.0 mi ESE 3.5 mph - N/A   Scattered Clouds
11:00 PM 78.8 °F - 71.6 °F 78% 29.89 in 5.0 mi ESE 3.5 mph - N/A   Scattered Clouds
11:30 PM 82.4 °F 85.4 °F 68.0 °F 62% 29.89 in 5.0 mi ENE 6.9 mph - N/A   Scattered Clouds